Location: Unspecified
(0.0000°N, 0.0000°E)
Time: 12:47:18
(UTC+00:00)

ISS - Visible Passes

Search period start: 12 April 2021 00:00
Search period end: 22 April 2021 00:00
Orbit: 418 x 422 km, 51.6° (Epoch: 12 April)

Date Brightness Start Highest point End Pass type
(mag) Time Alt. Az. Time Alt. Az. Time Alt. Az.
12 Apr -0.9 19:50:14 10° W 19:52:06 14° SW 19:52:09 14° SW visible
13 Apr -2.0 19:01:49 10° WNW 19:04:48 30° SW 19:07:48 10° S visible
16 Apr -1.7 05:03:42 10° S 05:06:38 27° SE 05:09:32 10° ENE visible
17 Apr -0.9 04:18:09 11° SSE 04:19:19 13° SE 04:20:55 10° E visible
18 Apr -3.4 05:06:46 21° WSW 05:08:38 45° NW 05:11:53 10° NNE visible
19 Apr -2.6 04:22:16 43° ENE 04:22:16 43° ENE 04:24:41 10° NE visible
